Tracking 35274 objects as of 10-Sep-2026
HD Live streaming from Space Station
objects crossing your sky now

OPS 6518


OPS 6518 is no longer on orbit


NORAD ID: 3594
Int'l Code: 1968-108A
Launch date: December 4, 1968
Source: United States (US)
Launch site: AIR FORCE WESTERN TEST RANGE (AFWTR)
Decay date: 1968-12-12
Your satellite tracking list
Your tracking list is empty




NASA's NSSDC Master Catalog

Two Line Element Set (TLE):
1 03594U 68108  A 68347.09018706  .00746618 +00000-0 +00000-0 0  9995
2 03594 106.1827 070.1802 0339395 123.6740 239.7345 15.68137624001143
Source of the keplerian elements: AFSPC